AZERSPACE 2 (IS-38) (43632 NORAD) Tracking and Keplerian Element Data

This shows tracking and keplerian element data for the satellite.

Feedback or suggestion? Click here.




ElementValue
Catalog43632
NameAZERSPACE 2 (IS-38)
Epoch Orbit2344
Epoch Day34.69252256
Epoch Year2025
RAAN66.9524
Inclination0.0143
Eccentricity0.0001377
Argument of Perigee247.7467
Mean Anonmoly113.8036
Mean Motion1.00270185
Decay Rate1.41E-06
L11 43632U 18074A 25034.69252256 .00000141 00000+0 00000+0 0 9993
L22 43632 0.0143 66.9524 0001377 247.7467 113.8036 1.00270185 23444



Live tracking and technical data element details for AZERSPACE 2 (IS-38) (NORAD 43632). AZERSPACE 2 (IS-38) can be tracked NOW for your location showing map with azimuth and elevation plus other details from your city location.







IsCatalogInMostPopularTable: catalog: 43632, numindb: 543
Update: records affected: 1



GetName: 43632 AZERSPACE 2 (IS-38)

Hit Count: updated at: Thu, 15 May 2025 19:00:29 GMT